• Join FlightAware (Why Join?)
  • Login
  • US Flag GB Flag 
20:18 EST


 

Airport Tracker/Info


-or-


 

Live Flight TrackerFlight Track Log ✈ AAL9737 ✈ 12-Sep-2009 ✈ KIAD - KCHO

Flight Track Log - Related Links

Times and Time Zones

All times are in EDT time to prevent confusion due to time zone crossing. See the AAL9737 flight status page for this flight to view local times or setup timezone preferences in your user account.

Time Position Orientation Groundspeed Altitude Reporting Facility
EDT Latitude Longitude Course Direction KTS MPH feet Rate Location/Type
16:09 38.9333 -77.5167 237° Southwest 182 209 2,500  Level Potomac TRACON
16:10 38.9000 -77.5833 218° Southwest 240 276 5,800 2,640 Climbing Potomac TRACON
16:10 38.8928 -77.5814 223° Southwest 10,000 1,980 Climbing Washington Center
16:11 38.8500 -77.6333 204° Southwest 267 307 7,600  Descending Potomac TRACON
16:12 38.7597 -77.6842 206° Southwest 279 321 10,000 1,080 Climbing Washington Center
16:13 38.6839 -77.7325 202° Southwest 291 335 10,000  Level Washington Center
16:14 38.6167 -77.7667 224° Southwest 302 348 10,000  Level Potomac TRACON
16:15 38.5500 -77.8500 226° Southwest 299 344 10,000  Level Potomac TRACON
16:16 38.5000 -77.9167 233° Southwest 297 342 10,000 -600 Level Potomac TRACON
16:17 38.4500 -78.0000 226° Southwest 289 333 8,800 -1,620 Descending Potomac TRACON
16:18 38.4000 -78.0667 233° Southwest 278 320 6,800 -1,560 Descending Potomac TRACON
16:19 38.3500 -78.1500 226° Southwest 248 285 5,700 -1,200 Descending Potomac TRACON
16:20 38.3000 -78.2167 230° Southwest 250 288 4,400 -660 Descending Potomac TRACON
16:21 38.2667 -78.2667 208° Southwest 213 245 4,400 -360 Level Potomac TRACON
16:22 38.2167 -78.3000 205° Southwest 195 224 3,700 -660 Descending Potomac TRACON
16:22 38.2114 -78.3031 193° South 198 228 3,700 -120 Level Washington Center
16:23 38.1667 -78.3167 241° Southwest 209 241 3,600 -120 Descending Potomac TRACON
16:23 38.1631 -78.3250 203° Southwest 203 234 3,600 -240 Level Washington Center
16:24 38.1167 -78.3500 208° Southwest 200 230 3,400 -180 Descending Potomac TRACON
16:25 38.0667 -78.3833 230° Southwest 183 211 3,300 -300 Descending Potomac TRACON
16:26 38.0333 -78.4333 270° West 163 188 2,900 -300 Descending Potomac TRACON
16:27 38.0333 -78.4833 322° Northwest 145 167 2,800 -300 Descending Potomac TRACON
16:28 38.0500 -78.5000 22° Northeast 155 178 2,300 -600 Descending Potomac TRACON
16:29 38.0833 -78.4833 21° North 133 153 1,700 -660 Descending Potomac TRACON
16:30 38.1167 -78.4667 38° Northeast 134 154 1,000 -600 Descending Potomac TRACON
16:31 38.1500 -78.4333 38° Northeast 136 157 600 -420 Descending Potomac TRACON